Location: Cantaing
(50.1487°N, 3.1675°E)
Time: 20:09:59
(UTC+00:00)

Cosmos 1515 Rocket - Pass Details

Date: 14 January 2026
Orbit: 599 x 623 km, 82.5° (Epoch: 13 February)

Event Time Altitude Azimuth Distance (km) Brightness Sun altitude
Exits shadow 05:21:55 48° 225° (SW) 809 3.8 -21.6°
Drops below altitude 10° 05:25:25 10° 187° (S) 1,972 6.1 -21.0°
Sets 05:27:38 0° 183° (S) 2,868 7.1 -20.7°
